Weather reports worldwide

Advertisment
Madrid/Barajas, Spain (8221): temperature & dewpoint: 13.08.2019 00:00:00 - 19.08.2019 00:00:00 (CEST)Madrid/Barajas, Spain (8221): wind speed: 13.08.2019 00:00:00 - 19.08.2019 00:00:00 (CEST)Madrid/Barajas, Spain (8221): wind direction: 13.08.2019 00:00:00 - 19.08.2019 00:00:00 (CEST)Madrid/Barajas, Spain (8221): reduced air pressure: 13.08.2019 00:00:00 - 19.08.2019 00:00:00 (CEST)Madrid/Barajas, Spain (8221): visibility: 13.08.2019 00:00:00 - 19.08.2019 00:00:00 (CEST)
Date & Time tt [°C] td [°C] ff [km/h] ff [kn] dd ppp [hPa] vv [km]
19.08.2019 00:00:00 28,2 8,4 9 5 W 1010,5 30
18.08.2019 23:00:00 29,4 6,1 15 8 SW 1009,9 30
18.08.2019 22:00:00 30,3 4,1 21 11 WSW 1008,9 10
18.08.2019 21:00:00 32,3 1,4 29 16 SW 1007,9 10
18.08.2019 20:00:00 34,0 -1,9 35 19 SW 1007,2 30
18.08.2019 19:00:00 35,4 -0,9 29 16 SW 1006,7 10
18.08.2019 18:00:00 35,6 -3,7 29 16 SW 1007,1 30
18.08.2019 17:00:00 35,7 -4,0 29 16 SW 1007,4 10
18.08.2019 16:00:00 35,0 -2,6 31 17 SW 1007,7 10
18.08.2019 15:00:00 35,1 -2,2 29 16 WSW 1008,0 10
18.08.2019 14:00:00 33,9 2,4 26 14 SW 1008,9 10
18.08.2019 13:00:00 33,2 4,9 21 11 SW 1009,4 30
18.08.2019 12:00:00 31,5 6,2 22 12 SW 1010,2 30
18.08.2019 11:00:00 28,2 6,9 8 4 SSE 1011,0 10
18.08.2019 10:00:00 24,0 5,0 2 1 - 1011,8 10
18.08.2019 09:00:00 20,6 5,0 5 3 N 1012,1 30
18.08.2019 08:00:00 16,6 4,0 8 4 N 1012,8 30
18.08.2019 07:00:00 17,1 3,4 4 2 N 1012,0 10
18.08.2019 06:00:00 18,2 3,3 8 4 NNE 1011,6 10
18.08.2019 05:00:00 19,0 3,1 0 0 N 1011,5 30
18.08.2019 04:00:00 20,7 3,4 5 3 NNW 1011,2 30
18.08.2019 03:00:00 22,4 3,5 5 3 N 1010,7 30
18.08.2019 02:00:00 24,6 2,1 4 2 SE 1010,6 10
18.08.2019 01:00:00 28,0 2,2 8 4 E 1009,8 10
18.08.2019 00:00:00 31,2 2,4 16 9 W 1008,8 30
17.08.2019 23:00:00 32,0 3,9 16 9 W 1008,6 10
17.08.2019 22:00:00 32,8 5,4 18 10 WSW 1008,2 30
17.08.2019 21:00:00 34,5 4,1 21 11 WSW 1007,4 10
17.08.2019 20:00:00 36,1 4,4 22 12 WSW 1007,2 30
17.08.2019 19:00:00 37,0 6,1 16 9 WSW 1007,4 10
17.08.2019 18:00:00 37,3 6,3 22 12 WSW 1007,7 10
17.08.2019 17:00:00 37,4 5,4 24 13 SW 1008,3 30
17.08.2019 16:00:00 36,9 5,0 26 14 SW 1009,1 10
17.08.2019 15:00:00 36,3 5,5 22 12 SW 1009,8 10
17.08.2019 14:00:00 35,1 6,4 21 11 SSW 1010,9 30
17.08.2019 13:00:00 33,6 8,1 9 5 S 1011,8 30
17.08.2019 12:00:00 31,0 9,8 5 3 SW 1012,8 10
17.08.2019 11:00:00 28,7 10,4 4 2 - 1013,6 10
17.08.2019 10:00:00 26,3 8,3 4 2 - 1014,3 10
17.08.2019 09:00:00 22,4 7,8 2 1 - 1014,9 10
17.08.2019 08:00:00 18,9 7,3 8 4 N 1015,4 30
17.08.2019 07:00:00 19,3 7,4 5 3 N 1015,0 30
17.08.2019 06:00:00 20,2 7,4 8 4 NNE 1014,7 30
17.08.2019 05:00:00 21,3 7,5 8 4 N 1014,1 30
17.08.2019 04:00:00 23,2 7,3 5 3 ESE 1013,5 10
17.08.2019 03:00:00 23,9 7,5 2 1 - 1013,3 10
17.08.2019 02:00:00 25,1 7,7 4 2 NE 1013,1 30
17.08.2019 01:00:00 27,0 7,9 4 2 NE 1012,6 30
17.08.2019 00:00:00 28,9 8,0 9 5 NW 1011,7 10
16.08.2019 23:00:00 32,1 8,4 15 8 W 1011,0 30
16.08.2019 22:00:00 33,1 6,4 11 6 SSW 1010,3 10
16.08.2019 21:00:00 34,4 6,7 15 8 SSW 1009,6 30
16.08.2019 20:00:00 35,7 7,7 16 9 SSW 1009,1 30
16.08.2019 19:00:00 36,2 6,4 15 8 SW 1009,3 10
16.08.2019 18:00:00 36,5 7,5 13 7 SW 1009,6 30
16.08.2019 17:00:00 35,9 7,9 16 9 SSW 1010,4 10
16.08.2019 16:00:00 35,5 8,3 13 7 SW 1011,1 10
16.08.2019 15:00:00 34,8 10,6 11 6 S 1011,9 10
16.08.2019 14:00:00 33,4 12,4 11 6 S 1012,8 30
16.08.2019 13:00:00 31,1 12,9 11 6 SSE 1014,0 30
16.08.2019 12:00:00 29,3 12,7 8 4 S 1014,9 30
16.08.2019 11:00:00 27,2 12,4 8 4 SSE 1015,6 10
16.08.2019 10:00:00 25,3 11,5 4 2 N 1016,3 30
16.08.2019 09:00:00 23,0 10,4 4 2 ENE 1016,8 30
16.08.2019 08:00:00 19,0 10,0 0 0 N 1017,4 30
16.08.2019 07:00:00 19,5 9,7 4 2 NNE 1017,0 30
16.08.2019 06:00:00 21,2 10,1 8 4 NNW 1016,6 30
16.08.2019 05:00:00 22,0 10,2 9 5 N 1016,5 30
16.08.2019 04:00:00 22,9 10,3 11 6 NNW 1016,3 30
16.08.2019 03:00:00 23,5 10,2 5 3 NNE 1016,3 10
16.08.2019 02:00:00 24,7 10,5 11 6 N 1016,1 30
16.08.2019 01:00:00 25,6 10,6 18 10 NE 1015,5 30
16.08.2019 00:00:00 27,7 10,8 21 11 NE 1014,6 10
15.08.2019 23:00:00 29,8 8,2 13 7 N 1013,5 10
15.08.2019 22:00:00 31,6 7,3 13 7 N 1012,6 10
15.08.2019 21:00:00 34,5 6,7 9 5 WSW 1011,2 30
15.08.2019 20:00:00 35,6 9,2 8 4 SW 1010,6 10
15.08.2019 19:00:00 34,6 9,8 5 3 SSE 1011,1 10
15.08.2019 18:00:00 36,3 9,0 8 4 SSW 1011,0 30
15.08.2019 17:00:00 35,7 8,5 11 6 S 1011,6 30
15.08.2019 16:00:00 35,4 8,3 5 3 E 1012,4 10
15.08.2019 15:00:00 34,9 7,8 4 2 N 1013,0 10
15.08.2019 14:00:00 33,8 6,3 5 3 SSW 1013,8 10
15.08.2019 13:00:00 32,5 5,5 5 3 SE 1014,8 30
15.08.2019 12:00:00 30,4 5,8 8 4 N 1015,8 10
15.08.2019 11:00:00 27,5 6,4 4 2 NNE 1016,8 10
15.08.2019 10:00:00 24,7 6,4 5 3 ESE 1017,3 30
15.08.2019 09:00:00 21,3 5,2 2 1 N 1018,2 10
15.08.2019 08:00:00 16,0 3,7 4 2 N 1019,3 30
15.08.2019 07:00:00 16,8 2,9 0 0 N 1018,4 10
15.08.2019 06:00:00 17,2 3,1 4 2 N 1017,8 10
15.08.2019 05:00:00 18,4 3,4 8 4 N 1017,6 30
15.08.2019 04:00:00 19,0 3,6 5 3 NE 1017,3 10
15.08.2019 03:00:00 20,3 3,5 4 2 - 1017,1 10
15.08.2019 02:00:00 21,6 3,7 4 2 NW 1017,0 30
15.08.2019 01:00:00 23,1 3,6 9 5 NNE 1016,6 30
15.08.2019 00:00:00 25,4 3,9 9 5 N 1015,9 30
14.08.2019 23:00:00 29,1 3,1 9 5 SW 1015,0 10
14.08.2019 22:00:00 29,9 3,0 8 4 S 1014,1 10
14.08.2019 21:00:00 31,3 3,3 11 6 SSE 1013,3 10
14.08.2019 20:00:00 33,1 3,0 11 6 S 1012,7 30
14.08.2019 19:00:00 33,8 4,5 11 6 S 1012,6 10
14.08.2019 18:00:00 33,8 4,5 8 4 SSE 1013,1 10
14.08.2019 17:00:00 33,5 4,2 5 3 ESE 1013,7 30
14.08.2019 16:00:00 33,1 3,9 8 4 SW 1014,4 30
14.08.2019 15:00:00 31,2 4,1 8 4 WSW 1015,4 10
14.08.2019 14:00:00 29,6 5,6 5 3 WNW 1016,3 30
14.08.2019 13:00:00 28,9 5,6 8 4 S 1017,3 30
14.08.2019 12:00:00 26,2 9,1 5 3 SSW 1018,2 10
14.08.2019 11:00:00 24,0 7,9 5 3 S 1018,7 30
14.08.2019 10:00:00 21,4 5,6 4 2 E 1019,5 10
14.08.2019 09:00:00 18,4 3,5 2 1 SE 1020,3 30
14.08.2019 08:00:00 14,4 2,0 4 2 N 1020,8 30
14.08.2019 07:00:00 15,4 2,2 8 4 N 1020,4 10
14.08.2019 06:00:00 15,7 2,8 5 3 N 1020,0 30
14.08.2019 05:00:00 16,8 2,8 5 3 N 1019,8 30
14.08.2019 04:00:00 18,9 3,2 9 5 NNW 1019,2 30
14.08.2019 03:00:00 19,9 1,8 8 4 NNW 1019,0 10
14.08.2019 02:00:00 21,7 0,2 11 6 NE 1018,2 30
14.08.2019 01:00:00 21,3 -1,3 5 3 ENE 1018,1 10
14.08.2019 00:00:00 22,6 -0,9 2 1 ENE 1017,7 10
13.08.2019 23:00:00 25,0 -0,2 15 8 N 1016,4 30
13.08.2019 22:00:00 25,8 -0,3 13 7 N 1015,4 30
13.08.2019 21:00:00 28,9 -1,0 8 4 SSW 1014,1 10
13.08.2019 20:00:00 30,1 3,2 9 5 SSE 1013,4 10
13.08.2019 19:00:00 30,7 3,4 8 4 SSW 1013,4 30
13.08.2019 18:00:00 30,4 3,4 5 3 SSW 1013,7 10
13.08.2019 17:00:00 29,7 4,3 13 7 WNW 1014,5 10
13.08.2019 16:00:00 29,0 4,8 4 2 NNE 1015,1 30
13.08.2019 15:00:00 28,1 5,6 4 2 WNW 1015,9 10
13.08.2019 14:00:00 27,4 7,7 4 2 SW 1016,7 10
13.08.2019 13:00:00 26,0 9,3 8 4 WSW 1017,5 30
13.08.2019 12:00:00 24,1 7,3 8 4 NNE 1018,4 30
13.08.2019 11:00:00 21,9 5,7 8 4 NE 1019,0 10
13.08.2019 10:00:00 19,4 5,4 11 6 NE 1019,9 10
13.08.2019 09:00:00 17,1 5,1 13 7 NNE 1020,3 30
13.08.2019 08:00:00 15,1 5,3 15 8 N 1020,3 10
13.08.2019 07:00:00 15,7 5,3 13 7 NNE 1020,3 10
13.08.2019 06:00:00 16,0 5,6 13 7 N 1020,0 10
13.08.2019 05:00:00 16,6 5,8 13 7 N 1019,9 10
13.08.2019 04:00:00 17,1 5,7 13 7 NE 1019,8 10
13.08.2019 03:00:00 17,9 5,6 21 11 NE 1019,8 30
13.08.2019 02:00:00 18,5 5,7 11 6 NE 1020,0 10
13.08.2019 01:00:00 19,4 5,4 16 9 NE 1019,2 10
13.08.2019 00:00:00 21,2 4,3 16 9 NNE 1018,3 10

tt = temperature
td = dewpoint
ff = wind speed
dd = wind direction
ppp = reduced air pressure
vv = visibility

Next stations